STARLINK-33828, 63493

Orbit data source: Space-Track

STARLINK-33828, 63493 is a payload satellite owned by SpaceX/Seattle (US) in LEO that was launched on Mon, 07 Apr 2025 UTC via an FALCON 9 launch vehicle from the Air Force Western Test Range (AFWTR). Payload-class satellites include a variety of spacecraft equipped with specific instruments for various scientific and technological missions. These include communications satellites like Starlink; space stations such as the ISS; scientific satellites like the Hubble; Earth observation satellites from companies like Planet Labs, Umbra, and HawkEye 360; GPS; miniature CubeSats for education and research; and military/defense satellites.

Loading next visibility...
Identifier
63493, 2025-071A
Orbit
LEO
Country
Flag of USUS
Related business
Manufacturer
SpaceX/Seattle
Mission
Operational Commercial Communications
Bus & Motor
STARLINK V2MO, Unknown motor
Mass
575 kg wet, ~530 kg dry
Launch date (UTC)
2025-04-07 (1 year ago)
Launch vehicle
FALCON 9
Launch site
Air Force Western Test Range (AFWTR)
Object type
Payload
Rocket body
Debris
Shape & HBR
Box + 2 Pan, 17.7 m
Radar Cross Section
36.964 m², Large (>1 m²)

Expand to show TLE details & history
Last TLE update: 1 day ago

TLE from 1 day ago
0 STARLINK-33828
1 63493U 25071A   26173.87019853  .00020327  00000-0  59189-3 0  9999
2 63493  53.1611   9.2407 0001503 124.7966 235.3179 15.35408050 68881
Epoch: 2026-06-22T20:53Z
TLE epoch observation values (Epoch: 2026-06-22T20:53:05.152Z)
Latitude
0.00003°
Longitude
144.91934°
Altitude
461.195 km
Speed
7.637 km/s
True Right ascension
00h 36m 57s
True Declination
0° 00' 00"
Sunlit
Object was in daylight at epoch
Visualization orbit readout
Latitude
Unknown
Longitude
Unknown
Altitude
Unknown
Speed
Unknown
Apparent Right ascension
Unknown
Apparent Declination
Unknown
Sunlit
N/A
Visualization observer readout
Local Sidereal Time
13:38:16
Azimuth
Unknown
Elevation
Unknown
Doppler factor
Unknown
Orbital elements
Apogee altitude
460.993 km
Perigee altitude
458.938 km
Semi-major axis
6,838.103 km
Eccentricity
0.00015
Inclination
53.1611°
RAAN
9.2407°
Arg. of periapsis
124.7966°
True anomaly
235.30374°
Mean anomaly
235.3179°
Eccentric anomaly
235.31082°
Mean motion
3.83831 °/min
Orbital period
93.79 mins
BSTAR
0.00059189
Loading maneuver chart data...
Computing Atmospheric mass density...
Loading historical data...
Loading historical data...
Loading historical data...
Loading historical data...
Loading historical data...
Loading historical data...
Loading historical data...

Documentation

Showing up to 5 results
|